Overview Statistics Trail Chart Weather Telemetry Raw packets
 

This is the latest recevied weather packets stored in our database for station/object SV9TNF-55. If no packets are shown the sender has not sent any weather packets the latest 10 day(s).

<< 11 12 13 14 15 16 17 >>
Time Temp. Humidity Pressure Rain* Wind** Luminosity Snow
1788481680 20.56° C 44% 1012.2 hPa 0 mm 1.79 m/s, 292° - -
1788481080 20.56° C 42% 1012.2 hPa 0 mm 1.79 m/s, 292° - -
1788480480 20.56° C 42% 1012.4 hPa 0 mm 1.34 m/s, 292° - -
1788479879 20.56° C 41% 1012.4 hPa 0 mm 1.34 m/s, 337° - -
1788479279 20.56° C 41% 1012.3 hPa 0 mm 1.34 m/s, 337° - -
1788478679 21.11° C 41% 1012.4 hPa 0 mm 2.68 m/s, 292° - -
1788478079 21.11° C 41% 1012.5 hPa 0 mm 1.79 m/s, 292° - -
1788477480 21.11° C 38% 1012.5 hPa 0 mm 2.24 m/s, 292° - -
1788476879 21.11° C 37% 1012.7 hPa 0 mm 3.13 m/s, 292° - -
1788476279 21.11° C 37% 1012.6 hPa 0 mm 3.13 m/s, 292° - -
1788475679 20.56° C 37% 1012.8 hPa 0 mm 2.24 m/s, 292° - -
1788475080 21.11° C 37% 1012.9 hPa 0 mm 2.68 m/s, 292° - -
1788474479 21.11° C 37% 1012.8 hPa 0 mm 1.79 m/s, 292° - -
1788473879 21.11° C 37% 1012.8 hPa 0 mm 1.79 m/s, 292° - -
1788473292 21.11° C 36% 1012.8 hPa 0 mm 2.24 m/s, 292° - -
1788472678 21.11° C 35% 1012.6 hPa 0 mm 1.79 m/s, 292° - -
1788472078 21.11° C 34% 1012.7 hPa 0 mm 0.89 m/s, 292° - -
1788471480 21.67° C 33% 1012.7 hPa 0 mm 1.34 m/s, 292° - -
1788470879 21.67° C 33% 1012.6 hPa 0 mm 1.34 m/s, 22° - -
1788470278 22.22° C 33% 1012.5 hPa 0 mm 2.24 m/s, 292° - -
1788469678 22.22° C 32% 1012.5 hPa 0 mm 3.13 m/s, 292° - -
1788469078 22.22° C 32% 1012.5 hPa 0 mm 2.68 m/s, 315° - -
1788468478 22.78° C 29% 1012.8 hPa 0 mm 4.47 m/s, 292° - -
1788467878 22.78° C 29% 1012.8 hPa 0 mm 4.47 m/s, 292° - -
1788467277 22.78° C 29% 1012.8 hPa 0 mm 4.47 m/s, 292° - -

* Rain latest hour (hover to see other rain measurements)
** Current wind speed in m/s (hover to see current wind gust speed)